GW7138 Weather Reports


time (UTC)temp
F
wind
direction
speed
knots
gust
knots
rain 1hr
in
rain 24hr
in
rain mn
in
humidity
%
barometer
mb
20260507114017 79 272 0.0 2.6 0.00 0.00 0.00 95 1012.0
20260507113514 80 272 0.0 0.0 0.00 0.00 0.00 95 1012.0
20260507113012 80 272 0.0 1.7 0.00 0.00 0.00 95 1012.4
20260507112509 80 272 1.7 3.5 0.00 0.00 0.00 95 1012.0
20260507112006 80 272 0.0 2.6 0.00 0.00 0.00 94 1012.4
20260507111503 80 272 0.0 0.0 0.00 0.00 0.00 94 1012.4
20260507110959 80 272 0.0 0.0 0.00 0.00 0.00 94 1012.4
20260507110455 80 272 0.0 0.0 0.00 0.00 0.00 94 1012.4
20260507105952 80 272 0.0 0.0 0.00 0.01 0.01 94 1012.4
20260507105449 80 272 0.0 0.0 0.00 0.01 0.01 94 1012.4
20260507104945 80 272 0.0 0.0 0.00 0.01 0.01 94 1012.4
20260507104443 80 272 0.0 0.0 0.00 0.01 0.01 94 1012.4
20260507103938 80 272 0.0 0.0 0.00 0.01 0.01 94 1012.4
20260507103435 80 272 0.0 0.0 0.00 0.01 0.01 94 1012.4
20260507102931 80 272 0.0 0.0 0.00 0.01 0.01 93 1012.4
20260507102428 80 272 0.0 0.0 0.00 0.01 0.01 93 1012.4
20260507101925 80 272 0.0 0.0 0.00 0.01 0.01 93 1012.4
20260507101420 80 272 0.0 0.0 0.00 0.01 0.01 93 1012.4
20260507100916 80 272 1.7 3.5 0.00 0.01 0.01 93 1012.4
20260507100414 80 272 0.0 0.0 0.00 0.01 0.01 93 1012.0
20260507095912 80 272 0.0 0.0 0.00 0.01 0.01 93 1012.0
20260507095409 80 272 0.0 0.0 0.00 0.01 0.01 93 1012.0
20260507094906 81 272 2.6 3.5 0.00 0.01 0.01 93 1012.0
20260507094402 81 272 2.6 5.2 0.00 0.01 0.01 92 1012.4
20260507093859 81 272 0.0 0.0 0.00 0.01 0.01 92 1012.4
20260507093358 81 272 0.0 0.0 0.00 0.01 0.01 92 1012.4
20260507092856 81 272 0.0 0.0 0.00 0.01 0.01 92 1012.4
20260507092351 81 272 0.9 3.5 0.00 0.01 0.01 92 1012.4
20260507091848 81 272 0.0 0.0 0.00 0.01 0.01 92 1012.4
20260507091345 81 272 0.9 2.6 0.00 0.01 0.01 92 1012.4
20260507090840 81 272 2.6 3.5 0.00 0.01 0.01 92 1012.4
20260507090337 81 272 1.7 4.3 0.00 0.01 0.01 91 1012.4
20260507085834 81 272 2.6 3.5 0.00 0.01 0.01 91 1012.4
20260507085331 81 272 0.0 0.0 0.00 0.01 0.01 91 1012.4
20260507084828 81 272 0.0 0.0 0.00 0.01 0.01 91 1012.4
20260507084324 81 272 0.0 0.0 0.00 0.01 0.01 90 1012.4
20260507083822 81 272 0.0 0.0 0.00 0.01 0.01 90 1012.4
20260507083318 82 272 0.0 0.0 0.00 0.01 0.01 90 1012.4
20260507082814 82 272 0.9 3.5 0.00 0.01 0.01 90 1012.4
20260507082310 82 272 0.9 2.6 0.00 0.01 0.01 89 1012.4
20260507081808 82 272 0.0 0.0 0.00 0.01 0.01 89 1012.4
20260507081303 82 272 0.9 2.6 0.00 0.01 0.01 88 1012.0
20260507080800 82 272 1.7 3.5 0.00 0.01 0.01 88 1012.0
20260507080257 82 272 4.3 7.0 0.00 0.01 0.01 87 1012.4
20260507075752 82 268 0.9 3.5 0.00 0.01 0.01 88 1012.0
20260507075248 82 265 1.7 4.3 0.00 0.01 0.01 87 1012.0
20260507074744 82 269 3.5 5.2 0.00 0.01 0.01 87 1012.0
20260507074243 82 269 1.7 4.3 0.00 0.01 0.01 88 1012.0
20260507073739 83 269 0.9 2.6 0.00 0.01 0.01 87 1012.0
20260507073236 83 269 2.6 4.3 0.00 0.01 0.01 87 1012.0
20260507072734 83 263 4.3 7.0 0.00 0.01 0.01 86 1012.0
20260507072231 83 262 3.5 4.3 0.00 0.01 0.01 86 1011.7
20260507071728 83 276 7.0 10.4 0.00 0.01 0.01 87 1011.7
20260507071224 83 241 1.7 6.1 0.00 0.01 0.01 86 1011.7
20260507070721 82 245 0.9 3.5 0.00 0.01 0.01 90 1011.7
20260507070218 82 261 0.0 0.0 0.00 0.01 0.01 90 1011.7
20260507065715 82 261 0.0 0.0 0.00 0.01 0.01 90 1011.7
20260507065212 82 261 0.0 0.0 0.00 0.01 0.01 90 1011.7
20260507064709 82 261 0.0 0.0 0.00 0.01 0.01 90 1011.3
20260507064208 82 261 0.0 0.0 0.00 0.01 0.01 89 1011.3
20260507063705 82 261 0.0 0.0 0.00 0.01 0.01 90 1011.3
20260507063201 82 261 0.0 0.0 0.00 0.01 0.01 91 1011.3
20260507062658 82 285 0.0 0.0 0.00 0.01 0.01 91 1011.3
20260507062156 82 293 0.0 0.0 0.00 0.01 0.01 91 1011.0
20260507061654 82 293 0.0 0.0 0.00 0.01 0.01 91 1010.7
20260507061152 82 293 0.0 0.0 0.00 0.01 0.01 90 1010.7
20260507060649 82 293 0.0 0.0 0.00 0.01 0.01 90 1010.7
20260507060145 82 293 0.0 0.0 0.00 0.01 0.01 91 1010.7
20260507055641 82 293 0.0 0.0 0.00 0.01 0.01 90 1010.3
20260507055137 82 293 0.0 0.0 0.00 0.01 0.01 90 1010.7
20260507054633 82 293 0.0 0.0 0.00 0.01 0.01 90 1010.7
20260507054130 83 293 0.0 0.0 0.00 0.01 0.01 88 1010.3
20260507053628 84 293 0.9 3.5 0.00 0.01 0.01 85 1010.3
20260507053126 84 284 3.5 7.8 0.00 0.01 0.01 85 1010.3
20260507052624 84 247 0.9 3.5 0.00 0.01 0.01 85 1010.3
20260507052120 84 250 2.6 5.2 0.00 0.01 0.01 85 1010.3
20260507051618 84 254 2.6 5.2 0.00 0.01 0.01 84 1010.3
20260507051115 84 257 1.7 4.3 0.00 0.01 0.01 84 1010.3
20260507050611 84 243 4.3 7.8 0.00 0.01 0.01 83 1010.0
20260507050108 85 226 3.5 7.0 0.00 0.01 0.01 83 1010.3
20260507045605 85 191 4.3 9.6 0.00 0.01 0.01 82 1010.0
20260507045102 85 238 1.7 4.3 0.00 0.01 0.01 82 1010.0
20260507044558 85 237 5.2 7.8 0.00 0.01 0.01 81 1010.0
20260507044056 85 246 5.2 8.7 0.00 0.01 0.01 82 1009.6
20260507043551 84 234 1.7 5.2 0.00 0.01 0.01 83 1009.6
20260507043049 83 324 0.0 0.0 0.00 0.01 0.01 86 1009.6
20260507042544 83 324 0.0 0.0 0.00 0.01 0.01 86 1009.6
20260507042040 84 324 0.0 0.0 0.00 0.01 0.01 86 1009.6
20260507041537 84 324 0.0 0.0 0.00 0.01 0.01 84 1009.6
20260507041034 84 288 0.9 5.2 0.00 0.01 0.01 84 1009.3
20260507040531 85 278 0.0 0.0 0.00 0.01 0.01 81 1009.3
20260507040026 85 251 0.9 5.2 0.00 0.01 0.01 82 1009.3
20260507035523 86 251 0.0 0.0 0.00 0.01 0.01 80 1009.3
20260507035020 86 251 0.9 3.5 0.00 0.01 0.01 78 1009.3
20260507034517 85 234 1.7 6.1 0.00 0.01 0.01 80 1009.0
20260507034014 84 218 1.7 3.5 0.00 0.01 0.01 82 1009.3
20260507033512 84 225 4.3 6.1 0.00 0.01 0.01 82 1009.3
20260507033009 84 172 1.7 7.0 0.00 0.01 0.01 83 1009.3
20260507032506 85 242 8.7 11.3 0.00 0.01 0.01 83 1009.0
20260507032002 85 237 7.0 9.6 0.00 0.01 0.01 82 1009.0
20260507031458 85 242 7.8 11.3 0.00 0.01 0.01 81 1009.0
20260507030955 86 237 4.3 7.0 0.00 0.01 0.01 79 1009.0
20260507030452 86 238 7.0 8.7 0.00 0.01 0.01 78 1009.0
20260507025950 86 240 5.2 8.7 0.00 0.01 0.01 78 1009.0
20260507025447 86 256 4.3 8.7 0.00 0.01 0.01 79 1009.0
20260507024944 86 238 0.0 0.0 0.00 0.01 0.01 79 1009.0
20260507024442 85 238 3.5 6.1 0.00 0.01 0.01 79 1009.0
20260507023937 85 306 0.0 0.0 0.00 0.01 0.01 79 1009.0
20260507023434 85 248 5.2 7.0 0.00 0.01 0.01 78 1009.0
20260507022931 85 240 5.2 7.0 0.00 0.01 0.01 78 1009.0
20260507022429 85 238 7.0 9.6 0.00 0.01 0.01 77 1009.3
20260507021924 86 274 3.5 7.0 0.00 0.01 0.01 77 1009.0
20260507021419 85 243 3.5 4.3 0.00 0.01 0.01 76 1009.0
20260507020918 86 243 5.2 7.8 0.00 0.01 0.01 75 1009.0
20260507020414 86 229 7.0 9.6 0.00 0.01 0.01 75 1009.0
20260507015911 85 233 6.1 10.4 0.00 0.01 0.01 76 1009.0
20260507015409 85 240 7.0 8.7 0.00 0.01 0.01 78 1009.0
20260507014906 84 255 3.5 7.8 0.00 0.01 0.01 81 1009.3
20260507014402 83 240 7.0 9.6 0.00 0.01 0.01 85 1009.3
20260507013859 82 251 7.0 13.0 0.00 0.01 0.01 88 1009.3
20260507013356 83 249 8.7 13.0 0.00 0.01 0.01 88 1009.3
20260507012853 84 255 7.8 13.0 0.00 0.00 0.00 85 1009.3
20260507012349 84 220 7.0 9.6 0.00 0.00 0.00 84 1009.6
20260507011847 84 221 7.8 11.3 0.00 0.00 0.00 84 1009.6
20260507011344 84 216 8.7 11.3 0.00 0.00 0.00 84 1009.6
20260507010843 84 235 8.7 13.0 0.00 0.00 0.00 83 1009.6
20260507010339 84 226 9.6 11.3 0.00 0.00 0.00 83 1009.6
20260507005836 84 228 8.7 13.9 0.00 0.00 0.00 84 1009.6
20260507005333 84 220 10.4 15.6 0.00 0.00 0.00 84 1009.6
20260507004830 85 244 8.7 13.9 0.00 0.00 0.00 84 1009.6
20260507004327 85 265 13.0 16.5 0.00 0.00 0.00 82 1009.6
20260507003824 86 222 13.0 16.5 0.00 0.00 0.00 79 1009.3
20260507003319 87 218 14.8 17.4 0.00 0.00 0.00 79 1009.6
20260507002814 87 227 10.4 14.8 0.00 0.00 0.00 78 1009.6
20260507002311 87 233 12.2 15.6 0.00 0.00 0.00 79 1009.6
20260507001809 87 241 13.0 17.4 0.00 0.00 0.00 79 1009.6
20260507001306 87 245 12.2 16.5 0.00 0.00 0.00 79 1009.6
20260507000802 87 232 11.3 20.0 0.00 0.00 0.00 78 1009.6
20260507000259 86 231 11.3 19.1 0.00 0.00 0.00 80 1010.0
20260506235754 86 230 4.3 10.4 0.00 0.00 0.00 81 1009.6
20260506235250 86 222 11.3 17.4 0.00 0.00 0.00 80 1010.0
20260506234747 86 225 10.4 14.8 0.00 0.00 0.00 79 1009.6
20260506234244 87 228 14.8 22.6 0.00 0.00 0.00 78 1010.0
20260506233742 87 229 12.2 15.6 0.00 0.00 0.00 78 1010.0
20260506233238 86 232 12.2 18.2 0.00 0.00 0.00 79 1010.0
20260506232735 86 228 13.0 17.4 0.00 0.00 0.00 79 1010.3
20260506232236 86 235 11.3 19.1 0.00 0.00 0.00 79 1010.3
20260506231733 86 236 13.0 17.4 0.00 0.00 0.00 80 1010.3
20260506231231 86 187 8.7 14.8 0.00 0.00 0.00 79 1010.3
20260506230728 86 213 12.2 16.5 0.00 0.00 0.00 79 1010.7
20260506230225 86 227 13.9 19.1 0.00 0.00 0.00 79 1010.3
20260506225721 87 230 13.9 19.1 0.00 0.00 0.00 78 1010.3
20260506225219 87 225 10.4 16.5 0.00 0.00 0.00 77 1010.7
20260506224715 87 238 10.4 17.4 0.00 0.00 0.00 78 1010.7
20260506224212 86 232 11.3 13.9 0.00 0.00 0.00 80 1010.7
20260506223708 86 247 12.2 16.5 0.00 0.00 0.00 80 1011.0
20260506223204 86 233 13.0 21.7 0.00 0.00 0.00 81 1011.0
20260506222701 86 231 12.2 16.5 0.00 0.00 0.00 80 1011.0
20260506222156 86 227 13.9 20.9 0.00 0.00 0.00 80 1011.0
20260506221655 86 230 12.2 15.6 0.00 0.00 0.00 81 1011.3
20260506221153 86 213 9.6 18.2 0.00 0.00 0.00 80 1011.0
20260506220649 86 223 13.9 17.4 0.00 0.00 0.00 79 1011.3
20260506220144 86 221 12.2 15.6 0.00 0.00 0.00 80 1011.3
20260506215641 86 233 11.3 16.5 0.00 0.00 0.00 80 1011.3
20260506215136 86 220 9.6 14.8 0.00 0.00 0.00 79 1011.3
20260506214634 86 224 10.4 14.8 0.00 0.00 0.00 79 1011.3
20260506214131 86 217 13.0 20.9 0.00 0.00 0.00 80 1011.3
20260506213629 86 239 11.3 15.6 0.00 0.00 0.00 81 1011.7
20260506213126 86 219 9.6 13.0 0.00 0.00 0.00 82 1011.7
20260506212623 86 224 12.2 20.0 0.00 0.00 0.00 81 1011.7
20260506212118 86 223 12.2 16.5 0.00 0.00 0.00 82 1011.7
20260506211614 86 220 11.3 16.5 0.00 0.00 0.00 81 1011.7
20260506211111 87 242 7.8 10.4 0.00 0.00 0.00 80 1012.0
20260506210608 87 224 9.6 12.2 0.00 0.00 0.00 79 1011.7
20260506210104 86 239 8.7 12.2 0.00 0.00 0.00 79 1011.7
20260506205601 86 234 12.2 15.6 0.00 0.00 0.00 79 1011.3
20260506205056 86 229 9.6 13.9 0.00 0.00 0.00 80 1011.7
20260506204554 86 234 9.6 15.6 0.00 0.00 0.00 80 1011.7
20260506204051 86 232 12.2 15.6 0.00 0.00 0.00 81 1011.7
20260506203550 85 227 15.6 20.0 0.00 0.00 0.00 82 1011.7
20260506203046 85 196 7.8 12.2 0.00 0.00 0.00 82 1011.7
20260506202544 85 238 7.0 8.7 0.00 0.00 0.00 84 1011.7
20260506202040 85 248 7.0 13.0 0.00 0.00 0.00 84 1012.0
20260506201538 85 230 10.4 14.8 0.00 0.00 0.00 84 1012.0
20260506201034 85 225 10.4 15.6 0.00 0.00 0.00 84 1012.0
20260506200530 85 230 9.6 11.3 0.00 0.00 0.00 84 1011.7
20260506200027 85 234 12.2 15.6 0.00 0.00 0.00 84 1011.7
20260506195524 85 224 10.4 15.6 0.00 0.00 0.00 84 1011.7
20260506195020 85 250 8.7 13.0 0.00 0.00 0.00 84 1011.7
20260506194518 85 235 10.4 13.0 0.00 0.00 0.00 85 1011.7
20260506194014 85 222 11.3 15.6 0.00 0.00 0.00 85 1011.3
20260506193511 85 224 11.3 13.9 0.00 0.00 0.00 85 1011.3
20260506193008 85 236 11.3 16.5 0.00 0.00 0.00 85 1011.3
20260506192505 85 240 10.4 14.8 0.00 0.00 0.00 85 1011.3
20260506192001 85 227 12.2 15.6 0.00 0.00 0.00 85 1011.3
20260506191458 85 224 11.3 15.6 0.00 0.00 0.00 84 1011.3
20260506190954 85 227 9.6 12.2 0.00 0.00 0.00 84 1011.3
20260506190451 85 222 7.8 13.9 0.00 0.00 0.00 83 1011.3
20260506185948 85 238 7.8 11.3 0.00 0.00 0.00 83 1011.3
20260506185445 85 256 6.1 14.8 0.00 0.00 0.00 83 1011.3
20260506184942 85 235 7.0 13.9 0.00 0.00 0.00 84 1011.3
20260506184439 85 223 9.6 14.8 0.00 0.00 0.00 84 1011.3
20260506183936 84 187 4.3 7.8 0.00 0.00 0.00 84 1011.3
20260506183431 84 234 5.2 7.8 0.00 0.00 0.00 84 1011.3
20260506182929 84 244 0.9 4.3 0.00 0.00 0.00 84 1011.3
20260506182426 84 217 0.0 0.0 0.00 0.00 0.00 84 1011.3
20260506181923 84 229 5.2 8.7 0.00 0.00 0.00 83 1011.0
20260506181421 84 244 7.0 12.2 0.00 0.00 0.00 83 1011.0
20260506180918 84 232 7.8 11.3 0.00 0.00 0.00 83 1011.0
20260506180414 84 229 5.2 8.7 0.00 0.00 0.00 83 1011.0
20260506175911 84 230 9.6 12.2 0.00 0.00 0.00 83 1011.0
20260506175408 84 232 7.8 13.9 0.00 0.00 0.00 83 1011.0
20260506174905 84 241 8.7 13.0 0.00 0.00 0.00 84 1010.7
20260506174402 84 225 6.1 9.6 0.00 0.00 0.00 84 1010.7
20260506173859 84 248 8.7 13.0 0.00 0.00 0.00 84 1010.7
20260506173356 84 244 11.3 15.6 0.00 0.00 0.00 84 1010.7
20260506172853 84 229 8.7 13.9 0.00 0.00 0.00 84 1010.7
20260506172350 84 242 7.8 12.2 0.00 0.00 0.00 84 1010.3
20260506171847 84 226 9.6 14.8 0.00 0.00 0.00 84 1010.3
20260506171344 84 232 10.4 13.0 0.00 0.00 0.00 84 1010.3
20260506170842 84 244 9.6 14.8 0.00 0.00 0.00 83 1010.0
20260506170338 84 228 11.3 13.9 0.00 0.00 0.00 84 1010.0
20260506165837 84 221 9.6 13.9 0.00 0.00 0.00 83 1009.6
20260506165335 84 222 9.6 14.8 0.00 0.00 0.00 83 1009.6
20260506164831 84 214 12.2 16.5 0.00 0.00 0.00 83 1009.6
20260506164327 84 219 13.0 15.6 0.00 0.00 0.00 83 1009.6
20260506163825 84 228 11.3 15.6 0.00 0.00 0.00 83 1009.3
20260506163319 84 216 10.4 13.9 0.00 0.00 0.00 83 1009.6
20260506162815 84 220 8.7 11.3 0.00 0.00 0.00 83 1009.6
20260506162313 84 230 7.8 12.2 0.00 0.00 0.00 84 1009.3
20260506161810 84 224 7.8 10.4 0.00 0.00 0.00 84 1009.6
20260506161307 84 224 8.7 13.0 0.00 0.00 0.00 84 1009.6
20260506155414 84 223 7.8 13.9 0.00 0.00 0.00 84 1009.6
20260506153536 84 223 7.8 13.9 0.00 0.00 0.00 84 1009.6
20260506153033 84 224 11.3 13.9 0.00 0.00 0.00 84 1009.6
20260506152531 84 224 11.3 13.9 0.00 0.00 0.00 84 1009.6
20260506152029 84 218 7.8 11.3 0.00 0.00 0.00 84 1009.6
20260506151526 84 233 7.8 11.3 0.00 0.00 0.00 85 1009.6
20260506151023 83 242 5.2 7.8 0.00 0.00 0.00 85 1009.6
20260506150519 84 197 0.9 4.3 0.00 0.00 0.00 86 1009.6
20260506150017 84 229 7.8 12.2 0.00 0.00 0.00 86 1009.6
20260506145513 84 226 10.4 13.0 0.00 0.00 0.00 86 1009.6
20260506145011 83 241 6.1 11.3 0.00 0.00 0.00 86 1009.6
20260506144507 83 235 5.2 11.3 0.00 0.00 0.00 86 1009.6
20260506144005 83 244 0.0 0.0 0.00 0.00 0.00 86 1009.6
20260506143502 83 231 2.6 7.8 0.00 0.00 0.00 85 1009.6
20260506143000 83 231 6.1 7.8 0.00 0.00 0.00 85 1009.6
20260506142458 83 221 9.6 13.0 0.00 0.00 0.00 86 1009.6
20260506141955 83 231 6.1 9.6 0.00 0.00 0.00 86 1009.6
20260506141453 83 216 8.7 11.3 0.00 0.00 0.00 87 1010.0
20260506140952 83 249 6.1 11.3 0.00 0.00 0.00 87 1010.0
20260506140448 83 239 4.3 7.0 0.00 0.00 0.00 88 1010.0
20260506135945 83 232 7.0 11.3 0.00 0.00 0.00 88 1010.0
20260506135442 83 236 7.0 13.0 0.00 0.00 0.00 88 1010.0
20260506134938 83 210 7.8 13.9 0.00 0.00 0.00 88 1010.0
20260506134434 83 219 4.3 10.4 0.00 0.00 0.00 88 1010.3
20260506133931 83 238 10.4 16.5 0.00 0.00 0.00 88 1010.0
20260506133429 83 220 7.8 11.3 0.00 0.00 0.00 89 1010.0
20260506132925 83 223 8.7 13.0 0.00 0.00 0.00 88 1010.0
20260506132422 84 216 10.4 15.6 0.00 0.00 0.00 87 1010.0
20260506131920 84 258 7.0 11.3 0.00 0.00 0.00 86 1010.0
20260506131416 84 229 5.2 11.3 0.00 0.00 0.00 85 1010.0
20260506130913 84 228 6.1 9.6 0.00 0.00 0.00 85 1010.0
20260506130409 84 226 5.2 9.6 0.00 0.00 0.00 84 1010.0
20260506125908 84 222 7.8 9.6 0.00 0.00 0.00 84 1010.0
20260506125406 84 237 9.6 12.2 0.00 0.00 0.00 85 1009.6
20260506124904 83 225 7.0 10.4 0.00 0.00 0.00 86 1010.0
20260506124400 83 230 7.0 11.3 0.00 0.00 0.00 87 1010.0
20260506123858 83 243 4.3 7.8 0.00 0.00 0.00 87 1010.0
20260506123356 83 211 7.8 11.3 0.00 0.00 0.00 89 1010.0
20260506122853 81 237 8.7 12.2 0.00 0.00 0.00 91 1010.0
20260506122350 80 278 0.0 0.0 0.00 0.00 0.00 92 1010.3
20260506121849 80 282 0.0 0.0 0.00 0.00 0.00 92 1010.3
20260506121345 80 282 0.0 0.0 0.00 0.00 0.00 91 1010.7
20260506120842 81 282 0.0 0.0 0.00 0.00 0.00 90 1010.7
20260506120340 82 282 0.0 0.0 0.00 0.00 0.00 88 1010.7
20260506115837 83 252 1.7 4.3 0.00 0.00 0.00 87 1010.7
20260506115335 82 238 5.2 8.7 0.00 0.00 0.00 86 1010.7
20260506114833 82 221 7.8 11.3 0.00 0.00 0.00 85 1010.7
20260506114330 82 234 7.0 10.4 0.00 0.00 0.00 84 1010.7